Tracking 19634 objects as of 21-May-2019
HD Live streaming from Space Station
objects crossing your sky now

GORIZONT 9

Track GORIZONT 9 now!
GORIZONT 9 is classified as:


NORAD ID: 14940
Int'l Code: 1984-041A
Perigee: 35,772.5 km
Apogee: 35,793.4 km
Inclination: 13.3 °
Period: 1,435.5 minutes
Semi major axis: 42153 km
RCS: 3.9811 m2 (large)
Launch date: April 22, 1984
Source: Commonwealth of Independent States (former USSR) (CIS)
Launch site: TYURATAM MISSILE AND SPACE COMPLEX (TTMTR)
aabbcc
Your satellite tracking list
Your tracking list is empty




NASA's NSSDC Master Catalog

Two Line Element Set (TLE):
1 14940U 84041A   19140.66507819 +.00000001 +00000-0 +00000-0 0  9993
2 14940 013.3158 334.4505 0002475 252.2405 311.4680 01.00310305096026
Source of the keplerian elements: AFSPC